| time (UTC) | temp F | wind direction | speed knots | gust knots | rain 1hr in | rain 24hr in | rain mn in | humidity % | barometer mb |
| 20260506044550 | 69 | 0 | 3.5 | 8.7 | 0.00 | 0.00 | 0.00 | 76 | 1006.9 |
| 20260506044046 | 69 | 347 | 3.5 | 9.6 | 0.00 | 0.00 | 0.00 | 75 | 1007.1 |
| 20260506043543 | 69 | 343 | 2.6 | 8.7 | 0.00 | 0.00 | 0.00 | 75 | 1007.0 |
| 20260506043042 | 70 | 4 | 3.5 | 7.0 | 0.00 | 0.00 | 0.00 | 74 | 1007.2 |
| 20260506042541 | 70 | 259 | 0.9 | 9.6 | 0.00 | 0.00 | 0.00 | 73 | 1007.0 |
| 20260506042038 | 70 | 353 | 3.5 | 8.7 | 0.00 | 0.00 | 0.00 | 73 | 1006.9 |
| 20260506041537 | 70 | 8 | 3.5 | 8.7 | 0.00 | 0.00 | 0.00 | 73 | 1007.0 |
| 20260506041033 | 70 | 354 | 5.2 | 12.2 | 0.00 | 0.00 | 0.00 | 74 | 1006.9 |
| 20260506040531 | 71 | 359 | 5.2 | 7.8 | 0.00 | 0.00 | 0.00 | 74 | 1006.8 |
| 20260506040027 | 71 | 359 | 3.5 | 9.6 | 0.00 | 0.00 | 0.00 | 74 | 1006.8 |
| 20260506035524 | 71 | 356 | 5.2 | 9.6 | 0.00 | 0.00 | 0.00 | 74 | 1006.5 |
| 20260506035021 | 71 | 1 | 4.3 | 14.8 | 0.00 | 0.00 | 0.00 | 74 | 1006.8 |
| 20260506034518 | 71 | 358 | 7.8 | 13.0 | 0.00 | 0.00 | 0.00 | 73 | 1006.5 |
| 20260506034015 | 72 | 12 | 3.5 | 9.6 | 0.00 | 0.00 | 0.00 | 73 | 1006.4 |
| 20260506033512 | 72 | 6 | 4.3 | 9.6 | 0.00 | 0.00 | 0.00 | 73 | 1006.4 |
| 20260506033009 | 72 | 348 | 4.3 | 11.3 | 0.00 | 0.00 | 0.00 | 73 | 1005.9 |
| 20260506032507 | 73 | 12 | 6.1 | 13.9 | 0.00 | 0.00 | 0.00 | 72 | 1005.9 |
| 20260506032003 | 73 | 28 | 2.6 | 11.3 | 0.00 | 0.00 | 0.00 | 73 | 1005.9 |
| 20260506031501 | 73 | 23 | 9.6 | 12.2 | 0.00 | 0.00 | 0.00 | 72 | 1005.7 |
| 20260506030958 | 73 | 11 | 3.5 | 8.7 | 0.00 | 0.00 | 0.00 | 73 | 1005.5 |
| 20260506030456 | 74 | 358 | 2.6 | 11.3 | 0.00 | 0.00 | 0.00 | 72 | 1005.5 |
| 20260506025952 | 74 | 0 | 5.2 | 9.6 | 0.00 | 0.00 | 0.00 | 72 | 1005.4 |
| 20260506025449 | 74 | 63 | 4.3 | 8.7 | 0.00 | 0.00 | 0.00 | 72 | 1005.7 |
| 20260506024946 | 75 | 3 | 4.3 | 12.2 | 0.00 | 0.00 | 0.00 | 71 | 1005.9 |
| 20260506024443 | 75 | 351 | 6.1 | 9.6 | 0.00 | 0.00 | 0.00 | 70 | 1005.5 |
| 20260506023938 | 75 | 5 | 5.2 | 11.3 | 0.00 | 0.00 | 0.00 | 70 | 1005.2 |
| 20260506023436 | 75 | 359 | 4.3 | 7.0 | 0.00 | 0.00 | 0.00 | 70 | 1004.9 |
| 20260506022932 | 76 | 357 | 4.3 | 11.3 | 0.00 | 0.00 | 0.00 | 69 | 1005.2 |
| 20260506022430 | 76 | 311 | 3.5 | 6.1 | 0.00 | 0.00 | 0.00 | 69 | 1005.0 |
| 20260506021928 | 77 | 348 | 6.1 | 12.2 | 0.00 | 0.00 | 0.00 | 68 | 1004.9 |
| 20260506021425 | 77 | 359 | 3.5 | 7.8 | 0.00 | 0.00 | 0.00 | 68 | 1004.8 |
| 20260506020922 | 77 | 356 | 3.5 | 7.0 | 0.00 | 0.00 | 0.00 | 68 | 1004.5 |
| 20260506020420 | 78 | 1 | 4.3 | 9.6 | 0.00 | 0.00 | 0.00 | 68 | 1004.4 |
| 20260506015916 | 78 | 356 | 4.3 | 7.8 | 0.00 | 0.00 | 0.00 | 67 | 1004.3 |
| 20260506015414 | 78 | 357 | 3.5 | 7.8 | 0.00 | 0.00 | 0.00 | 67 | 1004.0 |
| 20260506014911 | 78 | 15 | 3.5 | 6.1 | 0.00 | 0.00 | 0.00 | 67 | 1003.7 |
| 20260506014408 | 78 | 358 | 6.1 | 11.3 | 0.00 | 0.00 | 0.00 | 66 | 1003.9 |
| 20260506013904 | 79 | 19 | 4.3 | 10.4 | 0.00 | 0.00 | 0.00 | 66 | 1003.5 |
| 20260506013402 | 79 | 15 | 4.3 | 6.1 | 0.00 | 0.00 | 0.00 | 67 | 1003.8 |
| 20260506012858 | 79 | 354 | 1.7 | 5.2 | 0.00 | 0.00 | 0.00 | 66 | 1003.7 |
| 20260506012355 | 79 | 3 | 1.7 | 4.3 | 0.00 | 0.00 | 0.00 | 67 | 1003.3 |
| 20260506011852 | 79 | 356 | 1.7 | 7.0 | 0.00 | 0.00 | 0.00 | 65 | 1003.2 |
| 20260506011349 | 80 | 332 | 2.6 | 8.7 | 0.00 | 0.00 | 0.00 | 65 | 1003.3 |
| 20260506010846 | 80 | 332 | 0.9 | 3.5 | 0.00 | 0.00 | 0.00 | 65 | 1003.7 |
| 20260506010344 | 80 | 323 | 0.9 | 4.3 | 0.00 | 0.00 | 0.00 | 65 | 1003.4 |
| 20260506005841 | 80 | 294 | 1.7 | 4.3 | 0.00 | 0.00 | 0.00 | 66 | 1003.2 |
| 20260506005338 | 80 | 8 | 3.5 | 5.2 | 0.00 | 0.00 | 0.00 | 66 | 1003.0 |
| 20260506004833 | 80 | 7 | 4.3 | 7.0 | 0.00 | 0.00 | 0.00 | 66 | 1002.7 |
| 20260506004331 | 80 | 355 | 1.7 | 4.3 | 0.00 | 0.00 | 0.00 | 66 | 1002.9 |
| 20260506003827 | 80 | 322 | 2.6 | 4.3 | 0.00 | 0.00 | 0.00 | 66 | 1002.9 |
| 20260506003324 | 80 | 346 | 3.5 | 7.0 | 0.00 | 0.00 | 0.00 | 65 | 1002.9 |
| 20260506002820 | 81 | 330 | 2.6 | 7.0 | 0.00 | 0.00 | 0.00 | 65 | 1002.9 |
| 20260506002317 | 83 | 299 | 2.6 | 3.5 | 0.00 | 0.00 | 0.00 | 65 | 1002.8 |
| 20260506001812 | 84 | 309 | 1.7 | 7.8 | 0.00 | 0.00 | 0.00 | 64 | 1003.0 |
| 20260506001310 | 85 | 296 | 4.3 | 7.0 | 0.00 | 0.00 | 0.00 | 71 | 1002.7 |
| 20260506000807 | 85 | 311 | 2.6 | 2.6 | 0.00 | 0.00 | 0.00 | 76 | 1002.7 |
| 20260506000304 | 85 | 173 | 1.7 | 7.8 | 0.00 | 0.00 | 0.00 | 75 | 1002.6 |
| 20260505235801 | 85 | 156 | 5.2 | 6.1 | 0.00 | 0.00 | 0.00 | 75 | 1002.3 |
| 20260505235259 | 86 | 194 | 3.5 | 10.4 | 0.00 | 0.00 | 0.00 | 74 | 1002.2 |
| 20260505234755 | 86 | 192 | 0.9 | 7.0 | 0.00 | 0.00 | 0.00 | 74 | 1002.4 |
| 20260505234253 | 86 | 163 | 1.7 | 8.7 | 0.00 | 0.00 | 0.00 | 74 | 1002.2 |
| 20260505233749 | 86 | 128 | 3.5 | 11.3 | 0.00 | 0.00 | 0.00 | 73 | 1002.3 |
| 20260505233247 | 86 | 171 | 3.5 | 7.8 | 0.00 | 0.00 | 0.00 | 73 | 1002.0 |
| 20260505232745 | 86 | 180 | 4.3 | 10.4 | 0.00 | 0.00 | 0.00 | 72 | 1002.2 |
| 20260505232242 | 86 | 163 | 4.3 | 11.3 | 0.00 | 0.00 | 0.00 | 72 | 1001.9 |
| 20260505231738 | 87 | 200 | 2.6 | 10.4 | 0.00 | 0.00 | 0.00 | 71 | 1001.9 |
| 20260505231237 | 87 | 176 | 8.7 | 13.0 | 0.00 | 0.00 | 0.00 | 72 | 1002.0 |
| 20260505230735 | 87 | 166 | 6.1 | 13.9 | 0.00 | 0.00 | 0.00 | 71 | 1002.0 |
| 20260505230231 | 88 | 152 | 7.8 | 8.7 | 0.00 | 0.00 | 0.00 | 70 | 1001.7 |
| 20260505225728 | 89 | 151 | 1.7 | 8.7 | 0.00 | 0.00 | 0.00 | 69 | 1001.9 |
| 20260505225225 | 89 | 176 | 2.6 | 4.3 | 0.00 | 0.00 | 0.00 | 63 | 1001.9 |
| 20260505224720 | 89 | 166 | 3.5 | 7.8 | 0.00 | 0.00 | 0.00 | 62 | 1001.9 |
| 20260505224218 | 91 | 169 | 4.3 | 7.0 | 0.00 | 0.00 | 0.00 | 59 | 1001.8 |
| 20260505223716 | 90 | 167 | 1.7 | 6.1 | 0.00 | 0.00 | 0.00 | 59 | 1001.7 |
| 20260505223212 | 90 | 199 | 4.3 | 7.0 | 0.00 | 0.00 | 0.00 | 56 | 1001.7 |
| 20260505222708 | 90 | 217 | 4.3 | 10.4 | 0.00 | 0.00 | 0.00 | 56 | 1001.7 |
| 20260505222203 | 91 | 213 | 3.5 | 7.8 | 0.00 | 0.00 | 0.00 | 58 | 1001.5 |
| 20260505221702 | 91 | 183 | 1.7 | 6.1 | 0.00 | 0.00 | 0.00 | 59 | 1001.6 |
| 20260505221158 | 90 | 181 | 3.5 | 8.7 | 0.00 | 0.00 | 0.00 | 58 | 1001.6 |
| 20260505220655 | 90 | 172 | 1.7 | 7.8 | 0.00 | 0.00 | 0.00 | 59 | 1001.8 |
| 20260505220153 | 89 | 183 | 4.3 | 9.6 | 0.00 | 0.00 | 0.00 | 58 | 1001.7 |
| 20260505215650 | 91 | 178 | 1.7 | 6.1 | 0.00 | 0.00 | 0.00 | 58 | 1001.7 |
| 20260505215148 | 92 | 184 | 3.5 | 7.8 | 0.00 | 0.00 | 0.00 | 58 | 1001.7 |
| 20260505214646 | 91 | 169 | 5.2 | 8.7 | 0.00 | 0.00 | 0.00 | 57 | 1001.6 |
| 20260505214143 | 91 | 259 | 0.0 | 7.8 | 0.00 | 0.00 | 0.00 | 58 | 1001.7 |
| 20260505213640 | 92 | 208 | 3.5 | 7.8 | 0.00 | 0.00 | 0.00 | 55 | 1001.9 |
| 20260505213137 | 93 | 254 | 0.0 | 6.1 | 0.00 | 0.00 | 0.00 | 56 | 1001.5 |
| 20260505212632 | 91 | 271 | 2.6 | 8.7 | 0.00 | 0.00 | 0.00 | 57 | 1001.8 |
| 20260505212131 | 91 | 177 | 6.1 | 11.3 | 0.00 | 0.00 | 0.00 | 55 | 1001.7 |
| 20260505211627 | 91 | 209 | 4.3 | 9.6 | 0.00 | 0.00 | 0.00 | 56 | 1002.0 |
| 20260505211124 | 91 | 193 | 5.2 | 10.4 | 0.00 | 0.00 | 0.00 | 54 | 1002.1 |
| 20260505210621 | 92 | 247 | 3.5 | 7.0 | 0.00 | 0.00 | 0.00 | 53 | 1001.7 |
| 20260505210118 | 92 | 211 | 4.3 | 7.8 | 0.00 | 0.00 | 0.00 | 55 | 1002.1 |
| 20260505205615 | 91 | 238 | 3.5 | 9.6 | 0.00 | 0.00 | 0.00 | 54 | 1002.2 |
| 20260505205113 | 91 | 250 | 5.2 | 10.4 | 0.00 | 0.00 | 0.00 | 56 | 1002.2 |
| 20260505204610 | 91 | 220 | 6.1 | 13.0 | 0.00 | 0.00 | 0.00 | 55 | 1002.2 |
| 20260505204108 | 91 | 177 | 3.5 | 9.6 | 0.00 | 0.00 | 0.00 | 58 | 1002.4 |
| 20260505203604 | 91 | 238 | 3.5 | 11.3 | 0.00 | 0.00 | 0.00 | 57 | 1002.3 |
| 20260505203101 | 91 | 237 | 3.5 | 7.8 | 0.00 | 0.00 | 0.00 | 57 | 1002.2 |
| 20260505202557 | 91 | 240 | 3.5 | 14.8 | 0.00 | 0.00 | 0.00 | 58 | 1002.6 |
| 20260505202053 | 91 | 241 | 4.3 | 10.4 | 0.00 | 0.00 | 0.00 | 56 | 1002.5 |
| 20260505201550 | 91 | 217 | 5.2 | 9.6 | 0.00 | 0.00 | 0.00 | 56 | 1002.6 |
| 20260505201048 | 91 | 194 | 3.5 | 8.7 | 0.00 | 0.00 | 0.00 | 57 | 1002.5 |
| 20260505200545 | 91 | 224 | 4.3 | 10.4 | 0.00 | 0.00 | 0.00 | 55 | 1002.7 |
| 20260505200042 | 90 | 241 | 3.5 | 10.4 | 0.00 | 0.00 | 0.00 | 59 | 1002.5 |
| 20260505195538 | 89 | 202 | 4.3 | 13.9 | 0.00 | 0.00 | 0.00 | 59 | 1002.6 |
| 20260505195036 | 89 | 223 | 3.5 | 13.9 | 0.00 | 0.00 | 0.00 | 58 | 1002.8 |
| 20260505194533 | 89 | 202 | 2.6 | 10.4 | 0.00 | 0.00 | 0.00 | 60 | 1002.6 |
| 20260505194028 | 89 | 225 | 6.1 | 9.6 | 0.00 | 0.00 | 0.00 | 60 | 1002.6 |
| 20260505193526 | 88 | 240 | 2.6 | 14.8 | 0.00 | 0.00 | 0.00 | 60 | 1003.0 |
| 20260505193023 | 89 | 187 | 4.3 | 13.0 | 0.00 | 0.00 | 0.00 | 62 | 1003.0 |
| 20260505192521 | 88 | 208 | 7.8 | 10.4 | 0.00 | 0.00 | 0.00 | 61 | 1003.0 |
| 20260505192018 | 88 | 188 | 8.7 | 10.4 | 0.00 | 0.00 | 0.00 | 63 | 1002.9 |
| 20260505191517 | 88 | 243 | 4.3 | 13.0 | 0.00 | 0.00 | 0.00 | 62 | 1003.0 |
| 20260505191015 | 87 | 182 | 4.3 | 7.8 | 0.00 | 0.00 | 0.00 | 65 | 1002.9 |
| 20260505190509 | 87 | 233 | 5.2 | 12.2 | 0.00 | 0.00 | 0.00 | 65 | 1002.8 |
| 20260505190005 | 87 | 194 | 2.6 | 13.0 | 0.00 | 0.00 | 0.00 | 65 | 1003.2 |
| 20260505185502 | 86 | 252 | 7.8 | 13.0 | 0.00 | 0.00 | 0.00 | 66 | 1003.2 |
| 20260505184958 | 87 | 221 | 7.0 | 12.2 | 0.00 | 0.00 | 0.00 | 66 | 1003.3 |
| 20260505184455 | 86 | 217 | 7.8 | 14.8 | 0.00 | 0.00 | 0.00 | 66 | 1003.4 |
| 20260505183952 | 86 | 225 | 5.2 | 8.7 | 0.00 | 0.00 | 0.00 | 68 | 1003.2 |
| 20260505183449 | 86 | 234 | 9.6 | 10.4 | 0.00 | 0.00 | 0.00 | 67 | 1003.3 |
| 20260505182945 | 85 | 229 | 6.1 | 11.3 | 0.00 | 0.00 | 0.00 | 69 | 1003.3 |
| 20260505182442 | 86 | 180 | 4.3 | 9.6 | 0.00 | 0.00 | 0.00 | 67 | 1003.7 |
| 20260505181938 | 85 | 234 | 7.8 | 13.9 | 0.00 | 0.00 | 0.00 | 68 | 1003.5 |
| 20260505181436 | 85 | 217 | 6.1 | 11.3 | 0.00 | 0.00 | 0.00 | 70 | 1003.7 |
| 20260505180933 | 84 | 238 | 5.2 | 11.3 | 0.00 | 0.00 | 0.00 | 71 | 1003.5 |
| 20260505180429 | 84 | 228 | 5.2 | 11.3 | 0.00 | 0.00 | 0.00 | 70 | 1003.3 |
| 20260505175926 | 85 | 232 | 3.5 | 11.3 | 0.00 | 0.00 | 0.00 | 70 | 1003.4 |
| 20260505175422 | 85 | 233 | 2.6 | 10.4 | 0.00 | 0.00 | 0.00 | 71 | 1003.4 |
| 20260505174918 | 84 | 206 | 6.1 | 12.2 | 0.00 | 0.00 | 0.00 | 71 | 1003.5 |
| 20260505174416 | 84 | 219 | 7.0 | 15.6 | 0.00 | 0.00 | 0.00 | 70 | 1003.7 |
| 20260505173912 | 84 | 224 | 12.2 | 14.8 | 0.00 | 0.00 | 0.00 | 71 | 1003.7 |
| 20260505173408 | 82 | 218 | 7.8 | 14.8 | 0.00 | 0.00 | 0.00 | 73 | 1003.4 |
| 20260505172905 | 82 | 222 | 8.7 | 15.6 | 0.00 | 0.00 | 0.00 | 73 | 1003.5 |
| 20260505172403 | 82 | 197 | 7.0 | 13.0 | 0.00 | 0.00 | 0.00 | 73 | 1003.5 |
| 20260505171903 | 83 | 196 | 5.2 | 11.3 | 0.00 | 0.00 | 0.00 | 73 | 1003.5 |
| 20260505171400 | 82 | 207 | 9.6 | 20.9 | 0.00 | 0.00 | 0.00 | 73 | 1003.4 |
| 20260505170856 | 83 | 231 | 13.0 | 14.8 | 0.00 | 0.00 | 0.00 | 73 | 1003.2 |
| 20260505170354 | 82 | 230 | 3.5 | 18.2 | 0.00 | 0.00 | 0.00 | 74 | 1003.4 |
| 20260505165848 | 82 | 215 | 3.5 | 16.5 | 0.00 | 0.00 | 0.00 | 75 | 1003.2 |
| 20260505165344 | 81 | 215 | 3.5 | 14.8 | 0.00 | 0.00 | 0.00 | 75 | 1003.4 |
| 20260505164840 | 81 | 194 | 7.8 | 18.2 | 0.00 | 0.00 | 0.00 | 76 | 1003.2 |
| 20260505164337 | 81 | 201 | 4.3 | 12.2 | 0.00 | 0.00 | 0.00 | 76 | 1003.3 |
| 20260505163836 | 81 | 215 | 2.6 | 23.5 | 0.00 | 0.00 | 0.00 | 76 | 1003.3 |
| 20260505163334 | 81 | 207 | 6.1 | 17.4 | 0.00 | 0.00 | 0.00 | 76 | 1003.3 |
| 20260505162832 | 81 | 207 | 7.8 | 13.9 | 0.00 | 0.00 | 0.00 | 76 | 1003.2 |
| 20260505162328 | 81 | 189 | 7.0 | 13.9 | 0.00 | 0.00 | 0.00 | 76 | 1003.7 |
| 20260505161825 | 81 | 168 | 9.6 | 16.5 | 0.00 | 0.00 | 0.00 | 77 | 1003.7 |
| 20260505161322 | 80 | 186 | 9.6 | 11.3 | 0.00 | 0.00 | 0.00 | 77 | 1003.7 |
| 20260505160819 | 80 | 219 | 4.3 | 13.9 | 0.00 | 0.00 | 0.00 | 77 | 1003.5 |
| 20260505160318 | 80 | 228 | 7.8 | 15.6 | 0.00 | 0.00 | 0.00 | 78 | 1003.4 |
| 20260505153256 | 79 | 207 | 3.5 | 19.1 | 0.00 | 0.00 | 0.00 | 79 | 1003.5 |
| 20260505152753 | 79 | 215 | 8.7 | 18.2 | 0.00 | 0.00 | 0.00 | 80 | 1003.5 |
| 20260505152250 | 79 | 208 | 9.6 | 13.0 | 0.00 | 0.00 | 0.00 | 80 | 1003.3 |
| 20260505151744 | 78 | 219 | 3.5 | 20.9 | 0.00 | 0.00 | 0.00 | 81 | 1003.4 |
| 20260505151242 | 78 | 216 | 6.1 | 13.0 | 0.00 | 0.00 | 0.00 | 81 | 1003.4 |
| 20260505150738 | 78 | 209 | 3.5 | 12.2 | 0.00 | 0.00 | 0.00 | 81 | 1003.7 |
| 20260505150236 | 77 | 218 | 4.3 | 18.2 | 0.00 | 0.00 | 0.00 | 83 | 1003.8 |
| 20260505140200 | 75 | 229 | 4.3 | 13.0 | 0.00 | 0.00 | 0.00 | 87 | 1003.4 |
| 20260505130124 | 72 | 186 | 6.1 | 13.9 | 0.00 | 0.00 | 0.00 | 90 | 1003.5 |
| 20260505124613 | 71 | 241 | 3.5 | 9.6 | 0.00 | 0.00 | 0.00 | 92 | 1003.3 |
| 20260505124110 | 71 | 216 | 3.5 | 13.0 | 0.00 | 0.00 | 0.00 | 92 | 1003.3 |
| 20260505123606 | 71 | 191 | 4.3 | 9.6 | 0.00 | 0.00 | 0.00 | 93 | 1003.0 |
| 20260505123102 | 71 | 230 | 1.7 | 7.0 | 0.00 | 0.00 | 0.00 | 93 | 1002.9 |
| 20260505122559 | 70 | 196 | 4.3 | 9.6 | 0.00 | 0.00 | 0.00 | 94 | 1003.0 |
| 20260505122056 | 70 | 182 | 10.4 | 10.4 | 0.00 | 0.00 | 0.00 | 94 | 1002.6 |
| 20260505121547 | 70 | 175 | 6.1 | 8.7 | 0.00 | 0.00 | 0.00 | 94 | 1002.8 |
| 20260505121044 | 70 | 200 | 5.2 | 12.2 | 0.00 | 0.00 | 0.00 | 95 | 1002.7 |
| 20260505120540 | 70 | 186 | 6.1 | 7.8 | 0.00 | 0.00 | 0.00 | 95 | 1002.9 |
| 20260505120036 | 69 | 193 | 5.2 | 10.4 | 0.00 | 0.00 | 0.00 | 95 | 1002.6 |
| 20260505115531 | 69 | 213 | 4.3 | 11.3 | 0.00 | 0.00 | 0.00 | 95 | 1002.7 |
| 20260505115029 | 69 | 200 | 3.5 | 12.2 | 0.00 | 0.00 | 0.00 | 95 | 1002.7 |
| 20260505114525 | 69 | 228 | 1.7 | 9.6 | 0.00 | 0.00 | 0.00 | 95 | 1002.6 |
| 20260505114022 | 69 | 192 | 6.1 | 9.6 | 0.00 | 0.00 | 0.00 | 95 | 1002.5 |
| 20260505113518 | 69 | 180 | 8.7 | 12.2 | 0.00 | 0.00 | 0.00 | 95 | 1002.9 |
| 20260505113015 | 69 | 212 | 6.1 | 7.0 | 0.00 | 0.00 | 0.00 | 95 | 1002.7 |
| 20260505112510 | 69 | 196 | 4.3 | 9.6 | 0.00 | 0.00 | 0.00 | 95 | 1002.5 |
| 20260505112009 | 69 | 185 | 7.0 | 11.3 | 0.00 | 0.00 | 0.00 | 96 | 1002.6 |
| 20260505111502 | 69 | 180 | 3.5 | 11.3 | 0.00 | 0.00 | 0.00 | 95 | 1002.6 |
| 20260505110959 | 69 | 218 | 2.6 | 10.4 | 0.00 | 0.00 | 0.00 | 95 | 1002.7 |
| 20260505110455 | 69 | 192 | 1.7 | 7.8 | 0.00 | 0.00 | 0.00 | 95 | 1002.5 |
| 20260505101927 | 70 | 225 | 1.7 | 8.7 | 0.00 | 0.00 | 0.00 | 94 | 1002.5 |
| 20260505101421 | 70 | 178 | 3.5 | 10.4 | 0.00 | 0.00 | 0.00 | 94 | 1002.6 |
| 20260505100917 | 70 | 175 | 5.2 | 9.6 | 0.00 | 0.00 | 0.00 | 94 | 1002.4 |
| 20260505100414 | 70 | 175 | 6.1 | 11.3 | 0.00 | 0.00 | 0.00 | 94 | 1002.4 |
| 20260505095910 | 70 | 198 | 4.3 | 9.6 | 0.00 | 0.00 | 0.00 | 94 | 1002.8 |
| 20260505095407 | 70 | 206 | 2.6 | 7.0 | 0.00 | 0.00 | 0.00 | 94 | 1002.8 |
| 20260505094903 | 70 | 156 | 4.3 | 10.4 | 0.00 | 0.00 | 0.00 | 93 | 1002.6 |
| 20260505094401 | 70 | 202 | 2.6 | 9.6 | 0.00 | 0.00 | 0.00 | 93 | 1002.7 |
| 20260505093856 | 70 | 203 | 6.1 | 9.6 | 0.00 | 0.00 | 0.00 | 93 | 1002.6 |
| 20260505093353 | 70 | 185 | 5.2 | 8.7 | 0.00 | 0.00 | 0.00 | 93 | 1003.0 |
| 20260505092851 | 70 | 180 | 5.2 | 11.3 | 0.00 | 0.00 | 0.00 | 93 | 1003.1 |
| 20260505092349 | 71 | 161 | 2.6 | 11.3 | 0.00 | 0.00 | 0.00 | 92 | 1002.9 |
| 20260505091845 | 71 | 183 | 9.6 | 9.6 | 0.00 | 0.00 | 0.00 | 92 | 1002.9 |
| 20260505091343 | 71 | 197 | 6.1 | 8.7 | 0.00 | 0.00 | 0.00 | 92 | 1002.8 |
| 20260505090841 | 71 | 165 | 4.3 | 13.9 | 0.00 | 0.00 | 0.00 | 92 | 1003.0 |
| 20260505090339 | 71 | 183 | 7.8 | 13.9 | 0.00 | 0.00 | 0.00 | 91 | 1003.3 |
| 20260505085836 | 71 | 198 | 5.2 | 8.7 | 0.00 | 0.00 | 0.00 | 91 | 1003.2 |
| 20260505085334 | 71 | 188 | 7.0 | 17.4 | 0.00 | 0.00 | 0.00 | 91 | 1003.2 |
| 20260505084832 | 71 | 200 | 8.7 | 12.2 | 0.00 | 0.00 | 0.00 | 91 | 1003.3 |
| 20260505084330 | 71 | 198 | 6.1 | 11.3 | 0.00 | 0.00 | 0.00 | 91 | 1002.9 |
| 20260505083826 | 71 | 206 | 3.5 | 14.8 | 0.00 | 0.00 | 0.00 | 91 | 1003.1 |
| 20260505083324 | 71 | 251 | 3.5 | 8.7 | 0.00 | 0.00 | 0.00 | 91 | 1003.2 |
| 20260505082821 | 71 | 172 | 4.3 | 12.2 | 0.00 | 0.00 | 0.00 | 91 | 1003.1 |
| 20260505082317 | 71 | 188 | 2.6 | 12.2 | 0.00 | 0.00 | 0.00 | 90 | 1003.0 |
| 20260505081814 | 71 | 165 | 7.0 | 15.6 | 0.00 | 0.00 | 0.00 | 90 | 1003.1 |
| 20260505081310 | 71 | 172 | 7.8 | 16.5 | 0.00 | 0.00 | 0.00 | 90 | 1003.1 |
| 20260505080807 | 71 | 180 | 10.4 | 13.9 | 0.00 | 0.00 | 0.00 | 90 | 1003.3 |
| 20260505080303 | 71 | 165 | 7.0 | 13.0 | 0.00 | 0.00 | 0.00 | 90 | 1003.2 |
| 20260505075758 | 71 | 196 | 3.5 | 15.6 | 0.00 | 0.00 | 0.00 | 90 | 1003.3 |
| 20260505075256 | 71 | 183 | 6.1 | 14.8 | 0.00 | 0.00 | 0.00 | 90 | 1003.3 |
| 20260505074753 | 71 | 193 | 4.3 | 12.2 | 0.00 | 0.00 | 0.00 | 89 | 1003.5 |
| 20260505074250 | 72 | 175 | 7.0 | 15.6 | 0.00 | 0.00 | 0.00 | 89 | 1003.7 |
| 20260505073748 | 72 | 183 | 6.1 | 12.2 | 0.00 | 0.00 | 0.00 | 89 | 1003.4 |
| 20260505073245 | 72 | 166 | 3.5 | 10.4 | 0.00 | 0.00 | 0.00 | 89 | 1003.5 |
| 20260505072742 | 72 | 210 | 4.3 | 16.5 | 0.00 | 0.00 | 0.00 | 88 | 1003.4 |
| 20260505072238 | 72 | 228 | 3.5 | 11.3 | 0.00 | 0.00 | 0.00 | 88 | 1003.5 |
| 20260505071734 | 72 | 201 | 3.5 | 13.0 | 0.00 | 0.00 | 0.00 | 88 | 1003.9 |
| 20260505071231 | 72 | 184 | 3.5 | 10.4 | 0.00 | 0.00 | 0.00 | 88 | 1003.8 |
| 20260505070728 | 72 | 180 | 7.0 | 15.6 | 0.00 | 0.00 | 0.00 | 87 | 1003.8 |
| 20260505070224 | 72 | 238 | 2.6 | 17.4 | 0.00 | 0.00 | 0.00 | 87 | 1004.0 |
| 20260505065720 | 72 | 180 | 9.6 | 11.3 | 0.00 | 0.00 | 0.00 | 87 | 1004.1 |
| 20260505065217 | 73 | 166 | 2.6 | 17.4 | 0.00 | 0.00 | 0.00 | 86 | 1004.2 |
| 20260505064714 | 73 | 172 | 4.3 | 14.8 | 0.00 | 0.00 | 0.00 | 86 | 1004.3 |
| 20260505064212 | 73 | 180 | 1.7 | 12.2 | 0.00 | 0.00 | 0.00 | 86 | 1004.3 |
| 20260505063709 | 73 | 177 | 11.3 | 11.3 | 0.00 | 0.00 | 0.00 | 85 | 1004.4 |
| 20260505063205 | 73 | 180 | 11.3 | 14.8 | 0.00 | 0.00 | 0.00 | 85 | 1004.6 |
| 20260505062701 | 73 | 187 | 7.0 | 10.4 | 0.00 | 0.00 | 0.00 | 85 | 1004.6 |
| 20260505062200 | 73 | 182 | 6.1 | 11.3 | 0.00 | 0.00 | 0.00 | 84 | 1004.6 |
| 20260505061656 | 73 | 189 | 7.0 | 15.6 | 0.00 | 0.00 | 0.00 | 84 | 1004.4 |
| 20260505061154 | 73 | 185 | 3.5 | 12.2 | 0.00 | 0.00 | 0.00 | 84 | 1004.6 |
| 20260505060651 | 73 | 198 | 4.3 | 11.3 | 0.00 | 0.00 | 0.00 | 83 | 1004.5 |
| 20260505060148 | 73 | 210 | 3.5 | 18.2 | 0.00 | 0.00 | 0.00 | 83 | 1004.2 |
| 20260505055643 | 73 | 181 | 8.7 | 15.6 | 0.00 | 0.00 | 0.00 | 82 | 1004.2 |
| 20260505055140 | 73 | 176 | 4.3 | 17.4 | 0.00 | 0.00 | 0.00 | 82 | 1004.2 |
| 20260505054638 | 74 | 183 | 11.3 | 17.4 | 0.00 | 0.00 | 0.00 | 81 | 1004.4 |
| 20260505054136 | 74 | 185 | 5.2 | 16.5 | 0.00 | 0.00 | 0.00 | 81 | 1004.2 |
| 20260505053633 | 74 | 192 | 7.8 | 12.2 | 0.00 | 0.00 | 0.00 | 81 | 1004.2 |
| 20260505053129 | 74 | 188 | 11.3 | 13.9 | 0.00 | 0.00 | 0.00 | 80 | 1004.2 |
| 20260505052626 | 74 | 185 | 3.5 | 14.8 | 0.00 | 0.00 | 0.00 | 80 | 1004.4 |
| 20260505052124 | 74 | 215 | 6.1 | 13.0 | 0.00 | 0.00 | 0.00 | 80 | 1004.1 |
| 20260505051621 | 74 | 182 | 4.3 | 12.2 | 0.00 | 0.00 | 0.00 | 79 | 1004.5 |
| 20260505051119 | 74 | 172 | 5.2 | 11.3 | 0.00 | 0.00 | 0.00 | 79 | 1004.7 |
| 20260505050616 | 74 | 197 | 4.3 | 13.9 | 0.00 | 0.00 | 0.00 | 79 | 1004.7 |
| 20260505050114 | 75 | 174 | 7.8 | 16.5 | 0.00 | 0.00 | 0.00 | 78 | 1004.8 |